contact:dominique.lefevre@mio.osupytheas.fr, maurice.libes@osupytheas.fr, didier.mallarino@osupytheas.fr
Project:EMSO http://www.emso-fr.org/EMSO-France
Depth: 2436.0 m
Title:EMSO Ligure Ouest : Data MII capteur AQUADOPP
Date,Latitude,Longitude,X_East,Y_North,Z_Up,Amplitude_X,Amplitude_Y,Amplitude_Z,Batterie,SoundSpeed,Heading,Pitch,Roll,Pressure,TIS,Speed,Direction
, degrees North, degrees East, m.s-1, m.s-1,m.s-1, 1, 1, 1, Volt, m.s-1, degree, degree, degree, dbar, degree_C, m.s-1, degree
2022-07-08T00:04:03,42.805,6.029,-0.043,0.039,-0.006,103.0,103.0,101.0,13.4,1505.2,319.1,-0.8,1.8,2470.996,13.28,0.058,312.2
2022-07-08T00:07:03,42.805,6.029,-0.044,0.021,-0.039,104.0,103.0,100.0,13.4,1505.2,324.9,-0.7,1.8,2470.967,13.28,0.048,295.5
2022-07-08T00:10:03,42.805,6.029,-0.033,0.03,-0.028,103.0,102.0,101.0,13.4,1505.2,329.3,-0.8,1.8,2470.941,13.28,0.044,312.3
2022-07-08T00:13:03,42.805,6.029,-0.048,0.009,-0.021,104.0,103.0,102.0,13.4,1505.2,327.5,-0.7,1.8,2470.939,13.28,0.048,280.6
2022-07-08T00:16:03,42.805,6.029,-0.047,0.014,0.0,105.0,103.0,101.0,13.4,1505.2,320.0,-0.7,1.8,2470.951,13.29,0.049,286.6
2022-07-08T00:19:03,42.805,6.029,-0.039,0.014,-0.035,103.0,103.0,101.0,13.3,1505.2,322.5,-0.7,1.8,2470.939,13.29,0.041,289.7
2022-07-08T00:22:03,42.805,6.029,-0.034,0.009,-0.015,103.0,103.0,101.0,13.3,1505.2,320.5,-0.8,1.8,2470.945,13.29,0.035,284.8
2022-07-08T00:25:03,42.805,6.029,-0.047,0.007,-0.055,102.0,103.0,101.0,13.4,1505.2,323.0,-0.8,1.8,2470.914,13.29,0.047,278.5
2022-07-08T00:28:03,42.805,6.029,-0.018,0.013,0.011,104.0,103.0,101.0,13.4,1505.2,328.1,-0.8,1.8,2470.942,13.29,0.022,305.8
2022-07-08T00:31:03,42.805,6.029,-0.042,0.03,-0.018,104.0,103.0,101.0,13.4,1505.2,323.8,-0.8,1.8,2470.921,13.29,0.051,305.5
2022-07-08T00:34:03,42.805,6.029,-0.038,0.029,-0.029,103.0,104.0,100.0,13.3,1505.2,330.0,-0.8,1.8,2470.967,13.29,0.047,307.3
2022-07-08T00:37:03,42.805,6.029,-0.044,0.009,-0.015,104.0,101.0,101.0,13.3,1505.2,328.9,-0.8,1.9,2470.964,13.29,0.044,281.6
2022-07-08T00:40:03,42.805,6.029,-0.039,0.033,-0.012,101.0,103.0,102.0,13.4,1505.2,323.5,-0.8,1.8,2470.919,13.29,0.051,310.2
2022-07-08T00:43:03,42.805,6.029,-0.028,0.011,-0.008,103.0,104.0,101.0,13.4,1505.2,325.4,-0.7,1.8,2470.923,13.29,0.03,291.4
2022-07-08T00:46:03,42.805,6.029,-0.03,0.01,-0.019,103.0,104.0,101.0,13.3,1505.2,322.4,-0.8,1.8,2470.934,13.29,0.031,288.4
2022-07-08T00:49:03,42.805,6.029,-0.043,0.021,-0.003,103.0,102.0,100.0,13.4,1505.2,330.9,-0.7,1.8,2470.933,13.29,0.047,296.0
2022-07-08T00:52:03,42.805,6.029,-0.041,0.008,0.007,104.0,103.0,101.0,13.3,1505.2,323.7,-0.8,1.8,2470.943,13.29,0.041,281.0
2022-07-08T00:55:03,42.805,6.029,-0.048,0.032,-0.016,103.0,103.0,101.0,13.3,1505.2,328.5,-0.8,1.8,2470.953,13.29,0.057,303.7
2022-07-08T00:58:03,42.805,6.029,-0.03,0.026,0.002,102.0,103.0,101.0,13.4,1505.2,331.8,-0.8,1.8,2470.938,13.29,0.039,310.9
2022-07-08T01:04:03,42.805,6.029,-0.025,0.01,-0.023,104.0,104.0,103.0,13.3,1505.2,322.0,-0.8,1.8,2470.923,13.28,0.026,291.8
2022-07-08T01:07:03,42.805,6.029,-0.045,0.019,-0.017,104.0,104.0,102.0,13.4,1505.2,318.9,-0.8,1.8,2470.975,13.28,0.048,292.9
2022-07-08T01:10:03,42.805,6.029,-0.042,0.019,-0.045,103.0,104.0,101.0,13.3,1505.2,329.2,-0.8,1.8,2470.977,13.28,0.046,294.3
2022-07-08T01:13:03,42.805,6.029,-0.019,0.014,-0.018,104.0,103.0,100.0,13.3,1505.2,327.3,-0.8,1.8,2470.943,13.28,0.023,306.4
2022-07-08T01:16:03,42.805,6.029,-0.036,0.035,-0.009,102.0,103.0,100.0,13.4,1505.2,332.2,-0.8,1.8,2470.984,13.29,0.05,314.2
2022-07-08T01:19:03,42.805,6.029,-0.059,0.015,-0.036,103.0,104.0,101.0,13.4,1505.2,326.0,-0.7,1.8,2470.963,13.29,0.06,284.3
2022-07-08T01:22:03,42.805,6.029,-0.041,0.007,-0.037,104.0,102.0,99.0,13.3,1505.2,319.5,-0.8,1.8,2470.941,13.29,0.041,279.7
2022-07-08T01:25:03,42.805,6.029,-0.004,0.01,-0.008,105.0,104.0,100.0,13.4,1505.2,326.3,-0.8,1.8,2470.964,13.29,0.01,338.2
2022-07-08T01:28:03,42.805,6.029,-0.04,0.028,-0.041,103.0,103.0,100.0,13.4,1505.2,330.0,-0.8,1.8,2470.909,13.29,0.048,305.0
2022-07-08T01:31:03,42.805,6.029,-0.052,0.018,-0.016,102.0,103.0,101.0,13.4,1505.2,320.3,-0.8,1.8,2470.951,13.29,0.055,289.1
2022-07-08T01:34:03,42.805,6.029,-0.046,0.033,-0.017,104.0,103.0,101.0,13.4,1505.2,325.8,-0.7,1.8,2470.908,13.29,0.056,305.7
2022-07-08T01:37:03,42.805,6.029,-0.029,0.017,-0.04,103.0,104.0,102.0,13.4,1505.2,323.6,-0.7,1.8,2470.932,13.29,0.033,300.4
2022-07-08T01:40:03,42.805,6.029,-0.021,0.021,-0.012,101.0,104.0,102.0,13.4,1505.2,327.3,-0.7,1.8,2470.967,13.29,0.029,315.0
2022-07-08T01:43:03,42.805,6.029,-0.031,0.01,-0.018,104.0,103.0,102.0,13.4,1505.2,323.3,-0.7,1.8,2470.922,13.29,0.032,287.9
2022-07-08T01:46:03,42.805,6.029,-0.035,0.038,-0.024,104.0,103.0,99.0,13.3,1505.2,323.2,-0.8,1.8,2470.929,13.29,0.051,317.4
2022-07-08T01:49:03,42.805,6.029,-0.028,0.04,-0.004,102.0,103.0,101.0,13.3,1505.2,328.2,-0.8,1.8,2470.926,13.29,0.048,325.0
2022-07-08T01:52:03,42.805,6.029,-0.048,0.017,-0.028,105.0,102.0,103.0,13.3,1505.2,322.2,-0.8,1.8,2470.898,13.29,0.05,289.5
2022-07-08T01:55:03,42.805,6.029,-0.04,0.039,-0.005,103.0,103.0,101.0,13.4,1505.2,322.2,-0.8,1.8,2470.914,13.29,0.055,314.3
2022-07-08T01:58:03,42.805,6.029,-0.042,0.011,-0.013,104.0,103.0,101.0,13.4,1505.2,327.8,-0.7,1.8,2470.915,13.29,0.043,284.7
2022-07-08T02:04:03,42.805,6.029,-0.03,0.032,-0.04,103.0,104.0,101.0,13.4,1505.2,332.9,-0.8,1.8,2470.968,13.28,0.043,316.9
2022-07-08T02:07:03,42.805,6.029,-0.064,0.028,-0.015,104.0,104.0,100.0,13.3,1505.2,328.6,-0.8,1.8,2470.95,13.28,0.069,293.6
2022-07-08T02:10:03,42.805,6.029,-0.049,0.016,0.006,102.0,103.0,100.0,13.4,1505.2,322.2,-0.7,1.8,2470.922,13.28,0.051,288.1
2022-07-08T02:13:03,42.805,6.029,-0.044,0.03,-0.02,102.0,102.0,102.0,13.4,1505.2,330.0,-0.8,1.8,2470.936,13.28,0.053,304.3
2022-07-08T02:16:03,42.805,6.029,-0.059,0.008,-0.042,104.0,103.0,100.0,13.3,1505.2,326.4,-0.7,1.9,2470.892,13.29,0.059,277.7
2022-07-08T02:19:03,42.805,6.029,-0.021,0.022,-0.019,103.0,103.0,100.0,13.4,1505.2,328.0,-0.7,1.8,2470.897,13.29,0.03,316.3
2022-07-08T02:22:03,42.805,6.029,-0.048,0.023,-0.01,103.0,105.0,101.0,13.4,1505.2,322.9,-0.8,1.8,2470.952,13.29,0.053,295.6
2022-07-08T02:25:03,42.805,6.029,-0.047,0.015,-0.045,103.0,103.0,100.0,13.4,1505.2,329.8,-0.8,1.8,2470.911,13.29,0.049,287.7
2022-07-08T02:28:03,42.805,6.029,-0.075,0.031,-0.043,102.0,103.0,101.0,13.4,1505.2,329.1,-0.8,1.8,2470.912,13.29,0.081,292.5
2022-07-08T02:31:03,42.805,6.029,-0.061,0.022,-0.007,104.0,103.0,101.0,13.4,1505.2,321.1,-0.7,1.8,2470.904,13.29,0.064,289.8
2022-07-08T02:34:03,42.805,6.029,-0.04,0.028,-0.009,105.0,102.0,102.0,13.4,1505.2,323.9,-0.8,1.8,2470.887,13.29,0.048,305.0
2022-07-08T02:37:03,42.805,6.029,-0.05,0.025,-0.01,102.0,103.0,102.0,13.4,1505.2,322.7,-0.8,1.8,2470.936,13.29,0.055,296.6
2022-07-08T02:40:03,42.805,6.029,-0.031,0.023,-0.019,104.0,103.0,100.0,13.4,1505.2,331.6,-0.8,1.8,2470.905,13.29,0.038,306.6
2022-07-08T02:43:03,42.805,6.029,-0.054,0.027,0.001,103.0,104.0,101.0,13.3,1505.2,322.0,-0.8,1.8,2470.912,13.29,0.06,296.6
2022-07-08T02:46:03,42.805,6.029,-0.035,0.022,0.003,104.0,102.0,101.0,13.4,1505.2,321.1,-0.7,1.8,2470.893,13.29,0.041,302.2
2022-07-08T02:49:03,42.805,6.029,-0.046,-0.005,-0.019,103.0,103.0,100.0,13.4,1505.2,323.8,-0.7,1.8,2470.931,13.29,0.046,263.8
2022-07-08T02:52:03,42.805,6.029,-0.049,0.038,-0.007,104.0,103.0,100.0,13.4,1505.2,324.0,-0.8,1.8,2470.919,13.29,0.062,307.8
2022-07-08T02:55:03,42.805,6.029,-0.05,0.024,-0.029,102.0,104.0,100.0,13.4,1505.2,324.6,-0.8,1.8,2470.904,13.29,0.055,295.6
2022-07-08T02:58:03,42.805,6.029,-0.022,0.014,-0.038,104.0,103.0,101.0,13.4,1505.2,320.9,-0.7,1.9,2470.905,13.29,0.026,302.5
2022-07-08T03:04:03,42.805,6.029,-0.038,0.027,-0.018,102.0,103.0,101.0,13.4,1505.2,320.6,-0.8,1.8,2470.918,13.28,0.046,305.4
2022-07-08T03:07:03,42.805,6.029,-0.044,0.015,-0.016,103.0,104.0,100.0,13.4,1505.2,323.6,-0.7,1.8,2470.904,13.28,0.046,288.8
2022-07-08T03:10:03,42.805,6.029,-0.06,0.034,-0.025,102.0,102.0,101.0,13.4,1505.2,329.6,-0.8,1.8,2470.951,13.28,0.068,299.5
2022-07-08T03:13:03,42.805,6.029,-0.03,0.032,-0.021,103.0,103.0,101.0,13.4,1505.2,331.4,-0.8,1.8,2470.934,13.28,0.043,316.9
2022-07-08T03:16:03,42.805,6.029,-0.046,0.023,-0.014,103.0,101.0,102.0,13.4,1505.2,328.1,-0.8,1.8,2470.909,13.28,0.051,296.6
2022-07-08T03:19:03,42.805,6.029,-0.065,0.025,0.01,103.0,102.0,100.0,13.4,1505.2,319.7,-0.8,1.8,2470.904,13.29,0.069,291.0
2022-07-08T03:22:03,42.805,6.029,-0.036,0.016,-0.032,103.0,102.0,101.0,13.4,1505.2,325.7,-0.8,1.9,2470.907,13.29,0.039,294.0
2022-07-08T03:25:03,42.805,6.029,-0.072,0.038,-0.026,103.0,104.0,100.0,13.4,1505.2,325.6,-0.7,1.8,2470.88,13.29,0.081,297.8
2022-07-08T03:28:03,42.805,6.029,-0.049,0.006,-0.026,103.0,103.0,101.0,13.4,1505.2,321.0,-0.8,1.8,2470.914,13.29,0.049,277.0
2022-07-08T03:31:03,42.805,6.029,-0.053,0.012,-0.03,104.0,103.0,101.0,13.4,1505.2,322.4,-0.7,1.8,2470.894,13.29,0.054,282.8
2022-07-08T03:34:03,42.805,6.029,-0.014,0.01,-0.01,102.0,102.0,100.0,13.3,1505.2,325.6,-0.7,1.8,2470.901,13.29,0.017,305.5
2022-07-08T03:37:03,42.805,6.029,-0.048,0.034,-0.008,102.0,102.0,102.0,13.4,1505.2,320.6,-0.8,1.8,2470.879,13.29,0.058,305.3
2022-07-08T03:40:03,42.805,6.029,-0.032,0.024,-0.009,103.0,102.0,101.0,13.4,1505.2,326.3,-0.7,1.8,2470.884,13.29,0.04,306.9
2022-07-08T03:43:03,42.805,6.029,-0.034,0.035,-0.029,102.0,103.0,101.0,13.4,1505.2,328.7,-0.7,1.8,2470.873,13.29,0.048,315.8
2022-07-08T03:46:03,42.805,6.029,-0.05,0.022,-0.005,103.0,102.0,101.0,13.3,1505.2,329.3,-0.8,1.8,2470.904,13.29,0.054,293.7
2022-07-08T03:49:03,42.805,6.029,-0.014,0.026,-0.029,101.0,102.0,101.0,13.4,1505.2,331.9,-0.7,1.8,2470.912,13.29,0.029,331.7
2022-07-08T03:52:03,42.805,6.029,-0.055,0.023,-0.01,103.0,102.0,101.0,13.4,1505.2,323.3,-0.7,1.9,2470.899,13.29,0.059,292.7
2022-07-08T03:55:03,42.805,6.029,-0.053,0.012,-0.029,102.0,103.0,100.0,13.4,1505.2,322.9,-0.8,1.8,2470.864,13.29,0.054,282.8
2022-07-08T03:58:03,42.805,6.029,-0.055,0.032,-0.03,103.0,103.0,100.0,13.4,1505.2,323.3,-0.8,1.9,2470.88,13.29,0.063,300.2
2022-07-08T04:04:03,42.805,6.029,-0.026,0.032,-0.006,103.0,103.0,100.0,13.3,1505.2,327.8,-0.8,1.8,2470.97,13.28,0.041,320.9
2022-07-08T04:07:03,42.805,6.029,-0.037,0.009,-0.046,102.0,105.0,100.0,13.3,1505.2,320.6,-0.7,1.8,2470.921,13.28,0.038,283.7
2022-07-08T04:10:03,42.805,6.029,-0.012,0.029,-0.014,102.0,102.0,101.0,13.3,1505.2,329.4,-0.7,1.8,2470.922,13.28,0.031,337.5
2022-07-08T04:13:03,42.805,6.029,-0.062,0.016,-0.039,103.0,103.0,100.0,13.3,1505.2,322.8,-0.8,1.8,2470.911,13.28,0.064,284.5
2022-07-08T04:16:03,42.805,6.029,-0.053,0.026,-0.018,102.0,104.0,100.0,13.4,1505.2,326.1,-0.7,1.8,2470.884,13.28,0.059,296.1
2022-07-08T04:19:03,42.805,6.029,-0.028,0.021,0.003,103.0,103.0,101.0,13.4,1505.2,329.2,-0.8,1.8,2470.933,13.29,0.035,306.9
2022-07-08T04:22:03,42.805,6.029,-0.062,0.031,-0.017,102.0,103.0,101.0,13.4,1505.2,319.3,-0.7,1.8,2470.886,13.29,0.069,296.6
2022-07-08T04:25:03,42.805,6.029,-0.058,0.018,-0.018,102.0,103.0,101.0,13.3,1505.2,320.6,-0.7,1.8,2470.926,13.29,0.06,287.2
2022-07-08T04:28:03,42.805,6.029,-0.029,0.006,-0.031,102.0,103.0,101.0,13.3,1505.2,321.2,-0.8,1.8,2470.876,13.29,0.029,281.7
2022-07-08T04:31:03,42.805,6.029,-0.04,0.042,-0.008,103.0,103.0,102.0,13.4,1505.2,327.9,-0.7,1.8,2470.894,13.29,0.057,316.4
2022-07-08T04:34:03,42.805,6.029,-0.05,0.029,-0.014,103.0,103.0,101.0,13.4,1505.2,332.9,-0.8,1.8,2470.884,13.29,0.057,300.1
2022-07-08T04:37:03,42.805,6.029,-0.026,0.032,-0.015,103.0,102.0,100.0,13.4,1505.2,324.5,-0.7,1.8,2470.843,13.29,0.041,320.9
2022-07-08T04:40:03,42.805,6.029,-0.031,0.024,-0.021,103.0,102.0,101.0,13.4,1505.2,320.9,-0.7,1.8,2470.84,13.29,0.039,307.7
2022-07-08T04:43:03,42.805,6.029,-0.043,-0.011,-0.019,105.0,102.0,100.0,13.4,1505.2,320.6,-0.7,1.8,2470.824,13.29,0.044,255.7
2022-07-08T04:46:03,42.805,6.029,-0.042,0.03,-0.011,105.0,103.0,101.0,13.4,1505.2,323.4,-0.8,1.8,2470.857,13.29,0.051,305.5
2022-07-08T04:49:03,42.805,6.029,-0.008,0.016,-0.004,104.0,103.0,100.0,13.4,1505.2,323.4,-0.7,1.8,2470.814,13.29,0.017,333.4
2022-07-08T04:52:03,42.805,6.029,-0.016,0.045,0.007,103.0,103.0,101.0,13.4,1505.2,331.7,-0.8,1.8,2470.819,13.29,0.047,340.4
2022-07-08T04:55:03,42.805,6.029,-0.048,0.01,-0.031,103.0,103.0,100.0,13.3,1505.2,318.6,-0.7,1.7,2470.794,13.29,0.049,281.8
2022-07-08T04:58:03,42.805,6.029,-0.058,0.019,-0.005,104.0,102.0,101.0,13.3,1505.2,318.8,-0.8,1.8,2470.813,13.29,0.061,288.1
2022-07-08T05:04:03,42.805,6.029,-0.045,0.052,-0.007,103.0,103.0,101.0,13.4,1505.2,327.9,-0.8,1.8,2470.871,13.28,0.068,319.1
2022-07-08T05:07:03,42.805,6.029,-0.046,0.017,-0.019,103.0,102.0,102.0,13.4,1505.2,328.7,-0.8,1.8,2470.81,13.28,0.049,290.3
2022-07-08T05:10:03,42.805,6.029,-0.026,0.028,-0.028,103.0,104.0,100.0,13.4,1505.2,330.1,-0.7,1.8,2470.841,13.28,0.038,317.1
2022-07-08T05:13:03,42.805,6.029,-0.037,0.037,-0.017,104.0,103.0,101.0,13.4,1505.2,324.0,-0.8,1.8,2470.838,13.28,0.052,315.0
2022-07-08T05:16:03,42.805,6.029,-0.057,0.04,-0.022,104.0,102.0,101.0,13.4,1505.2,322.1,-0.7,1.8,2470.831,13.29,0.069,305.1
2022-07-08T05:19:03,42.805,6.029,-0.038,0.025,-0.043,104.0,102.0,101.0,13.3,1505.2,324.1,-0.8,1.8,2470.828,13.29,0.045,303.3
2022-07-08T05:22:03,42.805,6.029,-0.046,0.025,-0.016,103.0,103.0,101.0,13.4,1505.2,325.5,-0.8,1.8,2470.84,13.29,0.052,298.5
2022-07-08T05:25:03,42.805,6.029,-0.06,0.01,-0.013,105.0,102.0,100.0,13.3,1505.2,327.8,-0.7,1.8,2470.811,13.29,0.06,279.5
2022-07-08T05:28:03,42.805,6.029,-0.055,0.026,-0.008,104.0,103.0,100.0,13.4,1505.2,327.4,-0.8,1.8,2470.83,13.29,0.06,295.3
2022-07-08T05:31:03,42.805,6.029,-0.032,0.023,-0.024,104.0,102.0,100.0,13.4,1505.2,321.5,-0.8,1.8,2470.819,13.29,0.039,305.7
2022-07-08T05:34:03,42.805,6.029,-0.046,0.027,-0.006,102.0,102.0,102.0,13.4,1505.2,331.9,-0.8,1.8,2470.825,13.29,0.053,300.4
2022-07-08T05:37:03,42.805,6.029,-0.03,0.035,-0.013,104.0,102.0,102.0,13.4,1505.2,323.4,-0.7,1.8,2470.828,13.29,0.046,319.4
2022-07-08T05:40:03,42.805,6.029,-0.039,0.021,-0.006,104.0,103.0,101.0,13.4,1505.2,319.9,-0.7,1.9,2470.801,13.29,0.044,298.3
2022-07-08T05:43:03,42.805,6.029,-0.046,0.0,-0.036,102.0,103.0,102.0,13.4,1505.2,324.0,-0.7,1.9,2470.835,13.29,0.046,270.0
2022-07-08T05:46:03,42.805,6.029,-0.025,0.02,-0.003,104.0,101.0,101.0,13.3,1505.2,330.1,-0.7,1.9,2470.77,13.29,0.032,308.7
2022-07-08T05:49:03,42.805,6.029,-0.049,0.03,-0.007,104.0,104.0,100.0,13.4,1505.2,323.4,-0.8,1.8,2470.794,13.29,0.057,301.5
2022-07-08T05:52:03,42.805,6.029,-0.04,0.019,-0.039,106.0,104.0,100.0,13.4,1505.2,320.4,-0.7,1.8,2470.775,13.29,0.044,295.4
2022-07-08T05:55:03,42.805,6.029,-0.046,0.021,-0.016,103.0,102.0,102.0,13.4,1505.2,329.3,-0.7,1.8,2470.814,13.29,0.05,294.5
2022-07-08T05:58:03,42.805,6.029,-0.047,0.019,-0.013,103.0,102.0,102.0,13.3,1505.2,328.8,-0.7,1.8,2470.789,13.29,0.05,292.0
2022-07-08T06:04:03,42.805,6.029,-0.013,0.025,0.005,104.0,103.0,101.0,13.4,1505.2,329.9,-0.7,1.8,2470.855,13.28,0.028,332.5
2022-07-08T06:07:03,42.805,6.029,-0.041,0.013,0.009,104.0,104.0,101.0,13.4,1505.2,323.4,-0.8,1.8,2470.82,13.28,0.043,287.6
2022-07-08T06:10:03,42.805,6.029,-0.054,0.038,-0.003,103.0,103.0,101.0,13.4,1505.2,323.6,-0.8,1.8,2470.83,13.28,0.066,305.1
2022-07-08T06:13:03,42.805,6.029,-0.011,0.002,-0.01,104.0,104.0,101.0,13.4,1505.2,323.0,-0.8,1.8,2470.803,13.28,0.011,280.3
2022-07-08T06:16:03,42.805,6.029,-0.037,0.031,0.001,104.0,103.0,101.0,13.4,1505.2,324.9,-0.8,1.8,2470.778,13.29,0.048,310.0
2022-07-08T06:19:03,42.805,6.029,-0.049,0.027,-0.017,103.0,104.0,99.0,13.3,1505.2,327.9,-0.8,1.8,2470.782,13.29,0.055,298.9
2022-07-08T06:22:03,42.805,6.029,-0.043,0.039,-0.018,104.0,103.0,101.0,13.3,1505.2,329.1,-0.8,1.8,2470.754,13.29,0.058,312.2
2022-07-08T06:25:03,42.805,6.029,-0.031,0.043,0.0,103.0,102.0,102.0,13.3,1505.2,332.7,-0.8,1.8,2470.761,13.29,0.053,324.2
2022-07-08T06:28:03,42.805,6.029,-0.034,0.038,-0.018,102.0,103.0,102.0,13.3,1505.2,326.3,-0.8,1.8,2470.785,13.29,0.05,318.2
2022-07-08T06:31:03,42.805,6.029,-0.039,0.039,0.014,103.0,104.0,101.0,13.4,1505.2,330.9,-0.7,1.8,2470.798,13.29,0.055,315.0
2022-07-08T06:34:03,42.805,6.029,-0.059,0.014,-0.021,103.0,103.0,100.0,13.4,1505.2,319.1,-0.8,1.8,2470.81,13.29,0.06,283.3
2022-07-08T06:37:03,42.805,6.029,-0.057,0.035,0.004,103.0,103.0,102.0,13.4,1505.2,331.3,-0.8,1.8,2470.826,13.29,0.066,301.6
2022-07-08T06:40:03,42.805,6.029,-0.038,0.046,-0.02,102.0,103.0,101.0,13.4,1505.2,333.4,-0.8,1.8,2470.761,13.29,0.059,320.4
2022-07-08T06:43:03,42.805,6.029,-0.033,0.045,0.012,104.0,104.0,101.0,13.4,1505.2,329.0,-0.8,1.8,2470.773,13.29,0.055,323.7
2022-07-08T06:46:03,42.805,6.029,-0.035,0.023,-0.026,103.0,102.0,101.0,13.3,1505.2,322.9,-0.7,1.8,2470.789,13.29,0.041,303.3
2022-07-08T06:49:03,42.805,6.029,-0.028,0.027,-0.002,103.0,103.0,100.0,13.4,1505.2,326.1,-0.8,1.8,2470.781,13.29,0.038,314.0
2022-07-08T06:52:03,42.805,6.029,-0.037,0.021,-0.005,104.0,103.0,102.0,13.4,1505.2,326.7,-0.8,1.8,2470.804,13.29,0.042,299.6
2022-07-08T06:55:03,42.805,6.029,-0.045,0.024,-0.033,104.0,103.0,101.0,13.4,1505.2,320.3,-0.7,1.9,2470.764,13.29,0.051,298.1
2022-07-08T06:58:03,42.805,6.029,-0.045,0.033,-0.035,102.0,103.0,101.0,13.4,1505.2,322.3,-0.7,1.8,2470.806,13.29,0.055,306.3
2022-07-08T07:04:03,42.805,6.029,-0.041,0.058,0.057,103.0,104.0,101.0,13.4,1505.2,322.3,-0.7,1.8,2470.844,13.28,0.071,324.7
2022-07-08T07:07:03,42.805,6.029,-0.027,0.021,0.0,104.0,100.0,100.0,13.4,1505.2,328.7,-0.7,1.9,2470.788,13.28,0.034,307.9
2022-07-08T07:10:03,42.805,6.029,-0.048,0.019,-0.01,104.0,103.0,100.0,13.4,1505.2,321.1,-0.8,1.8,2470.819,13.28,0.051,291.6
2022-07-08T07:13:03,42.805,6.029,-0.052,0.06,-0.005,103.0,104.0,100.0,13.4,1505.2,325.6,-0.7,1.8,2470.794,13.28,0.079,319.1
2022-07-08T07:16:03,42.805,6.029,-0.052,0.03,0.03,102.0,103.0,100.0,13.4,1505.2,322.0,-0.8,1.8,2470.841,13.28,0.06,300.0
2022-07-08T07:19:03,42.805,6.029,-0.035,0.032,-0.024,103.0,103.0,101.0,13.3,1505.2,323.9,-0.8,1.8,2470.767,13.29,0.047,312.4
2022-07-08T07:22:03,42.805,6.029,-0.053,0.035,-0.001,103.0,102.0,101.0,13.4,1505.2,328.4,-0.7,1.8,2470.789,13.29,0.063,303.4
2022-07-08T07:25:03,42.805,6.029,-0.037,0.03,-0.007,101.0,103.0,102.0,13.4,1505.2,326.9,-0.8,1.8,2470.77,13.29,0.047,309.0
2022-07-08T07:28:03,42.805,6.029,-0.038,0.026,-0.008,102.0,104.0,99.0,13.3,1505.2,326.4,-0.8,1.8,2470.799,13.29,0.046,304.4
2022-07-08T07:31:03,42.805,6.029,-0.044,0.029,-0.019,103.0,104.0,102.0,13.3,1505.2,325.0,-0.7,1.8,2470.816,13.29,0.052,303.4
2022-07-08T07:34:03,42.805,6.029,-0.045,0.02,-0.005,105.0,103.0,100.0,13.4,1505.2,322.0,-0.7,1.8,2470.764,13.29,0.049,294.0
2022-07-08T07:37:03,42.805,6.029,-0.05,0.029,-0.018,104.0,104.0,100.0,13.4,1505.2,324.5,-0.7,1.9,2470.783,13.29,0.057,300.1
2022-07-08T07:40:03,42.805,6.029,-0.076,0.048,0.002,104.0,102.0,100.0,13.4,1505.2,324.2,-0.8,1.8,2470.775,13.29,0.089,302.3
2022-07-08T07:43:03,42.805,6.029,-0.047,0.032,-0.003,104.0,103.0,101.0,13.3,1505.2,329.6,-0.8,1.8,2470.755,13.29,0.056,304.2
2022-07-08T07:46:03,42.805,6.029,-0.055,0.031,-0.027,102.0,104.0,101.0,13.4,1505.2,326.7,-0.7,1.8,2470.772,13.29,0.063,299.4
2022-07-08T07:49:03,42.805,6.029,-0.029,0.035,0.003,104.0,103.0,101.0,13.4,1505.2,324.4,-0.8,1.8,2470.784,13.29,0.045,320.4
2022-07-08T07:52:03,42.805,6.029,-0.046,0.026,-0.007,102.0,103.0,101.0,13.4,1505.2,327.7,-0.8,1.8,2470.753,13.29,0.052,299.5
2022-07-08T07:55:03,42.805,6.029,-0.039,0.029,-0.011,102.0,103.0,101.0,13.4,1505.2,323.2,-0.8,1.8,2470.749,13.29,0.048,306.6
2022-07-08T07:58:03,42.805,6.029,-0.04,0.037,0.014,103.0,103.0,101.0,13.4,1505.2,330.2,-0.7,1.8,2470.756,13.29,0.054,312.8
2022-07-08T08:04:03,42.805,6.029,-0.042,0.014,-0.004,103.0,104.0,101.0,13.4,1505.2,331.1,-0.8,1.8,2470.788,13.28,0.044,288.4
2022-07-08T08:07:03,42.805,6.029,-0.062,0.025,-0.045,105.0,103.0,101.0,13.3,1505.2,322.6,-0.8,1.8,2470.785,13.28,0.066,292.0
2022-07-08T08:10:03,42.805,6.029,-0.02,0.023,-0.009,103.0,104.0,100.0,13.4,1505.2,327.4,-0.8,1.9,2470.744,13.28,0.03,319.0
2022-07-08T08:13:03,42.805,6.029,-0.038,0.035,-0.004,104.0,104.0,101.0,13.4,1505.2,323.5,-0.8,1.8,2470.758,13.28,0.051,312.6
2022-07-08T08:16:03,42.805,6.029,-0.046,0.038,0.017,103.0,103.0,101.0,13.3,1505.2,325.1,-0.8,1.8,2470.774,13.29,0.059,309.6
2022-07-08T08:19:03,42.805,6.029,-0.05,0.031,0.0,101.0,104.0,100.0,13.4,1505.2,322.3,-0.8,1.8,2470.809,13.29,0.058,301.8
2022-07-08T08:22:03,42.805,6.029,-0.051,0.035,-0.02,103.0,104.0,100.0,13.3,1505.2,328.9,-0.8,1.8,2470.781,13.29,0.061,304.5
2022-07-08T08:25:03,42.805,6.029,-0.023,0.021,0.013,103.0,103.0,101.0,13.3,1505.2,320.7,-0.7,1.8,2470.766,13.29,0.031,312.4
2022-07-08T08:28:03,42.805,6.029,-0.069,0.033,-0.039,103.0,105.0,100.0,13.4,1505.2,324.8,-0.8,1.8,2470.798,13.29,0.076,295.6
2022-07-08T08:31:03,42.805,6.029,-0.04,0.032,-0.009,101.0,103.0,102.0,13.4,1505.2,326.0,-0.8,1.8,2470.768,13.29,0.051,308.7
2022-07-08T08:34:03,42.805,6.029,-0.049,0.018,0.01,102.0,104.0,101.0,13.4,1505.2,324.6,-0.8,1.8,2470.732,13.29,0.052,290.2
2022-07-08T08:37:03,42.805,6.029,-0.036,0.032,-0.018,106.0,102.0,101.0,13.4,1505.2,322.9,-0.7,1.8,2470.742,13.29,0.048,311.6
2022-07-08T08:40:03,42.805,6.029,-0.066,0.03,0.02,103.0,104.0,100.0,13.4,1505.2,322.4,-0.8,1.8,2470.737,13.29,0.072,294.4
2022-07-08T08:43:03,42.805,6.029,-0.028,0.034,0.0,101.0,104.0,101.0,13.4,1505.2,332.5,-0.8,1.8,2470.788,13.29,0.044,320.5
2022-07-08T08:46:03,42.805,6.029,-0.037,0.019,-0.004,103.0,103.0,101.0,13.4,1505.2,328.4,-0.8,1.8,2470.756,13.29,0.041,297.2
2022-07-08T08:49:03,42.805,6.029,-0.041,0.042,-0.004,102.0,104.0,101.0,13.4,1505.2,320.1,-0.7,1.8,2470.77,13.29,0.058,315.7
2022-07-08T08:52:03,42.805,6.029,-0.038,0.028,-0.001,103.0,104.0,101.0,13.4,1505.2,320.9,-0.8,1.8,2470.734,13.29,0.047,306.4
2022-07-08T08:55:03,42.805,6.029,-0.02,0.047,0.007,102.0,104.0,101.0,13.3,1505.2,329.4,-0.8,1.8,2470.755,13.29,0.051,337.0
2022-07-08T08:58:03,42.805,6.029,-0.053,0.042,-0.006,103.0,103.0,101.0,13.4,1505.2,326.5,-0.8,1.8,2470.736,13.29,0.067,308.4
2022-07-08T09:04:03,42.805,6.029,-0.035,0.049,0.029,104.0,104.0,99.0,13.3,1505.2,326.5,-0.8,1.8,2470.755,13.28,0.06,324.5
2022-07-08T09:07:03,42.805,6.029,-0.054,0.034,0.004,103.0,105.0,100.0,13.3,1505.2,320.7,-0.7,1.8,2470.775,13.28,0.063,302.2
2022-07-08T09:10:03,42.805,6.029,-0.031,0.027,-0.018,103.0,102.0,101.0,13.4,1505.2,332.2,-0.7,1.8,2470.798,13.28,0.041,311.1
2022-07-08T09:13:03,42.805,6.029,-0.052,0.017,-0.007,103.0,104.0,101.0,13.4,1505.2,324.6,-0.7,1.8,2470.804,13.28,0.054,288.1
2022-07-08T09:16:03,42.805,6.029,-0.036,0.036,0.005,104.0,102.0,100.0,13.4,1505.2,326.7,-0.7,1.8,2470.779,13.29,0.05,315.0
2022-07-08T09:19:03,42.805,6.029,-0.068,0.026,0.0,102.0,103.0,102.0,13.4,1505.2,319.8,-0.8,1.8,2470.731,13.29,0.072,290.9
2022-07-08T09:22:03,42.805,6.029,-0.032,0.014,0.001,103.0,103.0,102.0,13.4,1505.2,327.8,-0.7,1.9,2470.79,13.29,0.034,293.6
2022-07-08T09:25:03,42.805,6.029,-0.052,0.029,-0.014,103.0,103.0,101.0,13.3,1505.2,323.2,-0.7,1.8,2470.758,13.29,0.059,299.1
2022-07-08T09:28:03,42.805,6.029,-0.027,0.026,-0.012,103.0,104.0,102.0,13.4,1505.2,328.2,-0.7,1.8,2470.73,13.29,0.037,313.9
2022-07-08T09:31:03,42.805,6.029,-0.033,0.022,0.022,103.0,105.0,101.0,13.4,1505.2,323.1,-0.8,1.8,2470.77,13.29,0.039,303.7
2022-07-08T09:34:03,42.805,6.029,-0.034,0.035,0.009,104.0,103.0,101.0,13.4,1505.2,324.4,-0.7,1.8,2470.742,13.29,0.048,315.8
2022-07-08T09:37:03,42.805,6.029,-0.054,0.027,-0.031,103.0,105.0,101.0,13.4,1505.2,322.8,-0.7,1.8,2470.75,13.29,0.06,296.6
2022-07-08T09:40:03,42.805,6.029,-0.045,0.038,0.011,103.0,103.0,100.0,13.4,1505.2,323.8,-0.7,1.8,2470.801,13.29,0.058,310.2
2022-07-08T09:43:03,42.805,6.029,-0.044,0.026,-0.003,103.0,104.0,101.0,13.4,1505.2,321.1,-0.8,1.8,2470.701,13.29,0.051,300.6
2022-07-08T09:46:03,42.805,6.029,-0.037,0.033,0.015,103.0,104.0,101.0,13.4,1505.2,323.2,-0.8,1.8,2470.748,13.29,0.049,311.7
2022-07-08T09:49:03,42.805,6.029,-0.033,0.025,0.027,103.0,104.0,100.0,13.3,1505.2,331.3,-0.7,1.8,2470.777,13.29,0.041,307.1
2022-07-08T09:52:03,42.805,6.029,-0.035,0.043,0.0,102.0,104.0,100.0,13.4,1505.2,326.9,-0.7,1.8,2470.799,13.29,0.055,320.9
2022-07-08T09:55:03,42.805,6.029,-0.033,0.033,0.019,103.0,103.0,101.0,13.3,1505.2,327.5,-0.8,1.8,2470.739,13.29,0.046,315.0